Lapse_Rate
8.3 8.0 7.9 7.7 7.6 7.6 7.4 7.3 7.5 7.6 7.6 7.5 7.3 7.2 6.9 7.2 7.3 7.3 7.1 6.9 6.8 6.8 6.8 7.0 7.7 7.2 7.0 7.1 6.8 7.0 6.9 6.7
7.7 7.6 7.6 7.6 7.5 7.5 7.2 7.2 7.3 7.4 7.3 7.3 7.3 7.3 7.2 7.2 7.1 6.9 7.0 6.6 6.5 6.5 6.5 6.5 6.9 7.5 7.4 7.4 7.0 6.9 6.8 6.9
7.6 7.3 7.2 7.2 6.9 7.2 7.1 7.2 7.0 7.0 7.0 7.0 7.1 7.2 6.9 6.9 6.8 6.3 6.2 6.2 6.0 5.9 6.0 6.0 6.4 6.8 7.3 7.6 7.7 7.1 6.6 6.7
7.4 7.3 7.2 7.2 7.0 7.1 7.2 7.2 7.1 7.0 7.0 6.8 6.8 6.8 6.8 6.7 6.7 6.7 6.4 6.3 6.2 6.2 6.1 6.1 6.3 6.4 6.5 7.0 7.5 7.5 6.9 6.4
7.3 7.2 7.1 7.1 7.0 6.8 6.8 7.0 7.0 6.7 6.8 7.0 6.9 6.9 6.9 6.9 6.8 7.0 7.0 6.8 6.9 7.1 6.7 6.4 6.6 5.9 5.3 6.0 6.7 6.8 7.1 7.1
7.3 7.3 7.3 7.3 7.2 7.3 7.6 7.4 7.3 7.3 7.2 7.0 6.9 6.8 6.7 6.7 6.7 6.7 6.9 6.8 6.8 6.8 6.8 6.8 6.7 6.2 5.0 5.2 5.7 5.7 6.4 6.7
7.2 7.2 7.3 7.1 7.3 7.2 7.3 7.4 7.3 7.3 7.2 7.0 7.0 6.9 6.8 6.8 6.8 6.8 6.7 6.8 6.9 7.0 7.1 7.0 6.9 6.8 6.0 5.4 6.2 5.6 5.7 5.9
7.0 7.1 7.2 7.1 7.1 7.1 7.1 7.1 7.0 6.9 6.9 6.9 6.8 6.7 6.5 6.4 6.3 6.3 6.5 6.5 6.5 6.7 7.0 7.0 6.9 6.8 6.7 6.2 5.7 5.3 5.7 5.6
7.0 6.9 7.0 6.9 7.0 7.0 6.8 6.9 6.8 6.8 6.8 6.8 6.7 6.6 6.4 6.3 6.2 6.1 6.1 6.2 6.2 6.3 6.3 6.6 6.6 6.6 6.6 6.5 6.2 6.1 6.3 5.4
7.0 6.9 6.9 6.8 6.7 6.7 6.5 6.7 6.4 6.3 6.5 6.6 6.5 6.5 6.5 6.4 6.2 6.0 5.9 6.0 6.2 6.3 6.2 6.2 6.5 6.4 6.5 6.7 6.7 6.7 6.5 6.6
6.9 6.7 6.5 6.6 6.5 6.4 6.4 6.3 6.1 6.1 6.3 6.2 6.1 6.0 6.0 6.0 6.0 6.0 5.9 5.9 6.0 6.1 6.1 6.2 6.3 6.4 6.5 6.5 6.5 6.5 6.6 6.8
6.5 6.4 6.3 6.4 6.3 6.2 6.0 6.0 5.8 5.8 5.7 5.5 5.9 5.8 5.7 5.6 5.6 5.8 5.8 5.7 5.7 5.7 5.8 5.9 6.0 6.1 6.3 6.4 6.4 6.3 6.6 6.6
6.2 6.1 6.0 6.0 5.9 5.9 5.8 5.7 5.5 5.4 5.4 5.0 5.3 5.0 5.0 4.8 5.0 4.9 5.2 5.4 5.6 5.6 5.6 5.7 5.9 5.8 5.9 6.3 6.5 6.4 6.5 6.5
6.1 6.0 6.0 5.9 5.9 5.5 5.5 5.4 5.4 5.2 5.3 5.2 5.1 5.1 4.8 4.9 4.9 5.0 5.2 5.4 5.5 5.4 5.2 5.2 5.4 5.5 5.5 5.8 6.3 6.6 6.1 6.3
6.2 6.2 6.0 5.7 5.8 5.7 5.4 5.4 5.7 5.6 5.3 4.9 4.6 4.1 4.6 5.0 5.1 5.1 5.1 5.2 5.4 5.4 5.1 4.7 4.7 5.1 5.4 5.0 5.4 5.8 6.5 5.9
6.7 6.3 6.1 5.9 5.6 5.8 6.2 5.7 5.5 5.5 5.5 5.2 4.6 4.0 4.1 4.2 4.3 4.1 3.8 4.2 4.9 5.0 5.0 4.9 4.4 4.5 4.7 5.1 4.8 4.8 5.4 6.3
6.3 6.3 6.3 6.1 5.9 5.7 5.7 6.2 5.9 5.7 5.6 5.3 4.9 4.9 4.9 4.9 4.7 5.0 4.9 4.7 4.9 5.0 5.2 5.5 5.2 4.8 4.9 4.8 4.8 4.9 4.9 4.9
6.0 6.0 6.0 5.9 5.7 5.6 5.5 5.5 5.8 5.6 5.6 5.7 5.8 5.8 5.7 5.3 5.2 5.6 5.0 5.2 5.2 5.2 5.4 5.4 5.5 5.4 5.1 5.1 4.8 4.7 5.0 5.2
5.3 5.2 5.3 5.5 5.6 5.8 5.4 5.3 5.3 5.6 5.7 5.6 5.6 5.2 5.1 4.9 5.0 5.4 5.2 5.3 5.2 5.4 5.6 5.7 5.7 5.5 5.5 5.4 5.2 5.2 4.9 5.1
5.3 5.1 5.0 5.1 4.9 4.9 5.1 5.1 5.2 5.5 5.9 5.9 5.6 5.4 5.3 5.4 5.7 6.2 5.5 5.9 6.0 5.9 6.0 6.1 5.8 5.6 5.4 5.4 5.5 5.5 5.6 5.3
Wind_Speed
11 14 13 11 10 9 5 4 4 4 5 4 5 10 16 15 16 19 17 17 18 13 7 7 6 8 8 3 4 3 6 13
5 2 17 16 12 12 9 7 6 5 5 5 4 12 18 17 15 16 16 18 18 19 17 13 1 3 4 7 5 6 8 14
6 9 6 3 8 13 11 10 9 9 7 7 8 6 6 11 15 11 14 13 14 13 12 12 11 8 6 7 6 9 13 13
6 5 7 7 9 4 9 8 6 3 5 8 7 5 9 9 11 6 6 5 6 6 10 8 6 5 7 7 9 12 14 8
6 4 5 5 5 8 4 5 1 6 6 10 10 3 4 3 1 2 3 2 2 3 5 4 2 4 4 5 14 13 12 10
6 3 2 2 6 4 7 5 4 6 6 2 6 4 4 2 4 2 3 3 4 3 3 6 6 3 1 6 10 13 11 12
5 4 3 3 1 5 6 3 5 3 3 3 6 3 2 5 6 6 1 3 4 4 4 5 5 7 5 9 11 12 15 11
5 4 3 2 3 4 2 3 5 2 3 3 1 5 4 4 1 1 2 5 8 7 3 4 5 7 6 12 13 13 14 17
5 4 5 3 6 4 6 6 3 4 6 2 3 4 3 3 3 2 6 0 1 3 3 4 4 4 5 5 7 16 17 18
7 6 8 6 6 5 5 10 7 6 9 8 4 2 2 3 2 3 5 5 1 3 3 4 4 4 3 3 4 8 10 11
5 4 4 5 3 4 3 5 4 8 10 10 7 4 3 3 3 6 3 1 1 1 3 3 4 4 5 4 4 5 8 11
4 4 5 4 3 3 3 4 5 4 7 9 11 9 5 4 3 5 4 2 1 2 2 3 3 4 4 5 5 6 6 6
5 5 5 3 3 2 3 3 3 3 5 8 10 7 10 5 4 1 1 1 2 2 2 3 4 4 4 4 4 8 7 9
7 7 7 5 4 4 4 4 5 5 5 9 9 9 7 6 5 3 1 2 3 4 3 2 2 4 3 5 6 6 5 5
7 8 8 7 9 5 4 3 2 2 3 3 6 14 11 9 7 4 3 2 2 2 3 5 4 3 5 4 7 6 7 7
8 7 8 8 8 7 8 5 6 6 5 5 8 14 10 10 6 4 3 2 3 3 3 2 3 4 4 5 5 6 9 12
6 7 8 8 7 8 7 6 5 3 3 4 2 3 2 1 1 3 3 3 3 4 5 5 4 4 5 4 5 6 7 9
5 7 10 9 9 8 9 9 6 4 4 1 0 2 4 6 8 7 6 5 5 5 5 6 6 6 6 7 8 8 9 8
6 8 11 10 8 9 9 8 8 7 5 3 3 2 1 3 5 6 4 4 5 5 6 6 7 7 9 8 9 10 9 10
7 8 9 10 12 12 8 8 5 4 3 2 3 2 1 4 3 2 4 5 5 6 5 6 7 7 9 9 9 8 8 9
Wind_Direction
128 142 144 135 134 128 129 136 133 133 123 102 103 106 101 97 93 94 87 77 71 86 118 159 161 162 166 186 257 269 289 285
25 139 150 159 157 144 144 163 164 153 138 133 142 106 108 104 93 97 89 88 85 77 70 49 154 202 212 182 214 253 255 267
69 357 18 46 185 150 148 160 161 155 150 165 184 155 129 130 101 94 97 90 92 93 81 74 61 4 284 256 238 249 248 235
61 34 7 327 288 98 113 78 113 208 149 169 223 86 75 87 138 114 98 69 62 67 63 45 25 71 30 312 285 273 272 259
52 30 28 329 34 53 90 105 280 97 42 13 57 56 90 227 324 211 140 65 342 5 353 357 34 358 25 12 315 305 320 307
113 112 123 57 344 77 118 91 99 80 62 98 136 176 137 280 125 340 184 244 283 271 238 281 283 238 316 278 271 285 295 282
146 158 173 145 61 66 81 122 70 122 135 41 347 126 129 182 151 181 154 171 191 237 260 253 245 258 224 256 255 255 250 242
162 190 185 189 104 124 127 109 136 172 97 88 341 54 348 90 118 103 133 25 3 351 306 258 254 240 235 235 245 259 259 260
153 209 158 196 138 160 204 155 163 130 105 93 30 94 55 344 61 10 65 342 315 328 318 312 307 292 264 270 269 240 244 243
186 206 161 190 194 170 202 154 203 164 153 148 156 160 174 199 117 73 27 304 16 355 316 318 316 303 268 257 276 294 278 255
203 180 221 189 198 234 171 125 226 184 160 164 173 181 221 264 126 109 298 290 119 72 351 322 322 310 305 315 307 275 274 280
213 190 211 195 202 245 158 182 235 158 206 182 173 180 202 269 182 165 202 254 121 57 303 305 297 287 299 306 281 281 260 265
236 235 224 172 234 230 237 211 227 208 225 176 184 209 196 216 271 36 201 247 13 250 252 325 319 298 300 291 281 280 277 263
208 230 225 188 222 219 232 216 222 203 211 178 186 225 226 214 222 216 255 57 331 306 278 277 270 297 308 318 315 310 304 356
245 230 228 207 203 246 229 213 292 299 233 201 191 210 216 230 238 222 232 208 250 311 316 311 288 316 316 290 309 298 317 316
212 250 237 232 198 212 247 231 214 230 236 239 228 196 210 213 239 259 246 223 237 255 271 314 314 295 304 289 283 288 299 305
208 235 252 250 242 212 214 229 244 250 266 253 180 150 167 178 321 334 314 345 360 340 328 314 297 286 282 293 296 290 291 295
205 233 255 252 247 241 207 214 227 249 235 335 213 97 64 54 46 40 21 3 351 346 323 311 300 293 290 291 286 283 284 284
229 223 238 249 251 250 236 206 206 229 251 222 211 110 78 54 48 24 353 339 321 306 296 287 284 280 278 276 275 274 279 281
289 285 270 245 240 239 217 206 195 201 212 134 66 71 150 79 66 264 288 300 283 272 271 271 271 272 274 270 274 274 270 269